Tracking 28920 objects as of 26-May-2024
HD Live streaming from Space Station
objects crossing your sky now

STARLINK-31913

Track STARLINK-31913 now!
10-day predictions
STARLINK-31913 is classified as:


NORAD ID: 59667
Int'l Code: 2024-084P
Perigee: 413.6 km
Apogee: 415.4 km
Inclination: 43.0 °
Period: 92.7 minutes
Semi major axis: 6785 km
RCS: Unknown
Launch date: May 6, 2024
Source: United States (US)
Launch site: AIR FORCE EASTERN TEST RANGE (AFETR)
Your satellite tracking list
Your tracking list is empty




NASA's NSSDC Master Catalog

Two Line Element Set (TLE):
1 59667U 24084P   24147.58334491 -.01462807  00000-0 -25399-1 0  9995
2 59667  43.0001 154.7826 0001309 262.1464  68.8839 15.53219657  4307
Source of the keplerian elements: AFSPC